Location: Biltmore Gardens
(41.6070°N, 83.4666°W)
Time: 12:45:24
(UTC+00:00)

Cosmos 2297 - Pass Details

Date: 14 July 2020
Orbit: 835 x 859 km, 71.0° (Epoch: 04 August)

Event Time Altitude Azimuth Distance (km) Brightness Sun altitude
Rises 03:49:29 0° 333° (NNW) 3,437 8.4 -21.8°
Reaches altitude 10° 03:51:58 10° 331° (NNW) 2,495 7.3 -22.0°
Maximum altitude 03:57:39 68° 250° (WSW) 916 3.8 -22.5°
Enters shadow 03:59:16 46° 186° (S) 1,127 3.9 -22.6°
